Kingston, Jamaica

5:02 PM EST on July 25, 2017 (GMT -0500)
Norman Manley International

Weather History for MKJP - March, 2013

Change the Weather History Date:

Wednesday, March 13, 2013

  Actual Average Record
Temperature  
Mean Temperature 79 °F -  
Max Temperature 84 °F 84 °F 89 °F (2007)
Min Temperature 74 °F 75 °F 71 °F (2011)
Cooling Degree Days 14    
Growing Degree Days 29 (Base 50)    
Moisture  
Dew Point 71 °F    
Average Humidity 76    
Maximum Humidity 89    
Minimum Humidity 63    
Precipitation  
Precipitation 0.00 in - - ()
Sea Level Pressure  
Sea Level Pressure 29.96 in    
Wind  
Wind Speed 5 mph ()    
Max Wind Speed 13 mph    
Max Gust Speed -    
Visibility 7.6 miles    
Events Rain    
Averages and records for this station are not official NWS values.
T = Trace of Precipitation, MM = Missing Value Source: Averaged Metar Reports

Daily Weather History Graph

Daily Weather History Graph

Search for Another Location

Airport or City:

Trip Planner

Search our weather history database for the weather conditions in past years. The results will help you decide how hot, cold, wet, or windy it might be!

Date:

Astronomy

Mar. 13, 2013 Rise Set
Actual Time 6:16 AM EST 6:16 PM EST
Civil Twilight 5:54 AM EST 6:38 PM EST
Nautical Twilight 5:29 AM EST 7:03 PM EST
Astronomical Twilight 5:04 AM EST 7:28 PM EST
Moon 7:16 AM EST (3/13) 8:04 PM EST (3/13)
Length of Visible Light 12h 43m
Length of Day
11h 59m
Waxing Crescent, 4% of the Moon is Illuminated
Mar 13
Waxing Crescent
Mar 19
First Quarter
Mar 27
Full
Apr 2
Last Quarter
Apr 10
New

Hourly Weather History & Observations

Time (EST) Temp. Heat Index Dew Point Humidity Pressure Visibility Wind Dir Wind Speed Gust Speed Precip Events Conditions
12:00 AM 77.0 °F - 69.8 °F 78% 29.98 in 6.2 mi NNE 5.8 mph - N/A   Partly Cloudy
1:00 AM 75 °F - 72 °F 89% 29.98 in 12 mi North 1.2 mph - -   Haze
1:00 AM 75.2 °F - 71.6 °F 89% 29.98 in 6.2 mi Variable 1.2 mph - N/A   Partly Cloudy
2:00 AM 77.0 °F - 71.6 °F 83% 29.95 in 6.2 mi East 2.3 mph - N/A   Partly Cloudy
2:11 AM 77.0 °F - 71.6 °F 83% 29.95 in 6.2 mi Variable 2.3 mph - N/A   Partly Cloudy
3:00 AM 77.0 °F - 71.6 °F 83% 29.95 in 6.2 mi West 3.5 mph - N/A   Scattered Clouds
4:00 AM 76 °F - 70 °F 76% 29.95 in 12 mi WNW 4.6 mph - -   Haze
4:00 AM 77.0 °F - 69.8 °F 78% 29.95 in 6.2 mi WNW 4.6 mph - N/A   Mostly Cloudy
5:00 AM 77.0 °F - 69.8 °F 78% 29.95 in 6.2 mi NW 3.5 mph - N/A   Scattered Clouds
6:00 AM 77.0 °F - 69.8 °F 78% 29.95 in 6.2 mi NNW 4.6 mph - N/A   Mostly Cloudy
7:00 AM 76 °F - 72 °F 82% 29.98 in 9 mi North 6.9 mph - -   Haze
7:00 AM 77.0 °F - 71.6 °F 83% 29.98 in 6.2 mi North 6.9 mph - N/A   Partly Cloudy
8:00 AM 80.6 °F 84.6 °F 71.6 °F 74% 30.01 in 6.2 mi SE 4.6 mph - N/A   Partly Cloudy
10:00 AM 81 °F - 71 °F 64% 30.04 in 9 mi South 6.9 mph - -   Mostly Cloudy
10:00 AM 80.6 °F 84.6 °F 71.6 °F 74% 30.04 in 6.2 mi South 6.9 mph - N/A   Mostly Cloudy
11:00 AM 80.6 °F 84.6 °F 71.6 °F 74% 30.01 in 6.2 mi SSE 6.9 mph - N/A   Mostly Cloudy
12:00 PM 82.4 °F 87.2 °F 71.6 °F 70% 29.98 in 6.2 mi South 9.2 mph - N/A   Mostly Cloudy
1:00 PM 83 °F - 72 °F 63% 29.98 in 14 mi SSE 11.5 mph - -   Haze
1:00 PM 82.4 °F 87.2 °F 71.6 °F 70% 29.98 in 6.2 mi SSE 11.5 mph - N/A   Mostly Cloudy
2:00 PM 80.6 °F 84.6 °F 71.6 °F 74% 29.95 in 6.2 mi SSE 11.5 mph - N/A   Mostly Cloudy
3:00 PM 80.6 °F 84.6 °F 71.6 °F 74% 29.92 in 6.2 mi SE 9.2 mph - N/A Rain Light Rain
4:00 PM 82 °F - 72 °F 65% 29.93 in 15 mi SE 11.5 mph - -   Haze
4:00 PM 82.4 °F 87.2 °F 71.6 °F 70% 29.92 in 6.2 mi SE 11.5 mph - N/A   Mostly Cloudy
5:00 PM 80.6 °F 84.6 °F 71.6 °F 74% 29.92 in 6.2 mi SE 12.7 mph - N/A   Scattered Clouds
6:00 PM 80.6 °F 85.4 °F 73.4 °F 79% 29.92 in 6.2 mi SE 10.4 mph - N/A   Mostly Cloudy
7:00 PM 80 °F - 73 °F 75% 29.93 in 12 mi SSE 9.2 mph - -   Haze
7:00 PM 80.6 °F 85.4 °F 73.4 °F 79% 29.92 in 6.2 mi SSE 9.2 mph - N/A   Scattered Clouds
8:00 PM 78.8 °F - 71.6 °F 78% 29.95 in 6.2 mi South 6.9 mph - N/A   Scattered Clouds
9:00 PM 78.8 °F - 71.6 °F 78% 29.98 in 6.2 mi West 4.6 mph - N/A   Scattered Clouds
10:00 PM 78 °F - 71 °F 73% 29.99 in 12 mi North 8.1 mph - -   Haze
10:00 PM 78.8 °F - 71.6 °F 78% 29.98 in 6.2 mi North 8.1 mph - N/A   Scattered Clouds
11:00 PM 78.8 °F - 71.6 °F 78% 29.98 in 6.2 mi North 8.1 mph - N/A   Partly Cloudy